Flag for Belarus Weather past 2 weeks in Minsk, Belarus

Now
68 °F

Partly sunny.


Feels Like: 68 °F
Forecast: 48 / 68 °F
Wind: 8 mph from Northeast

Location: Loshitsa / Minsk International 1


UV Index: 3 (Moderate)

Visibility: N/A


Pressure: 30.18 "Hg

Humidity: 46%

Dew point: 46 °F

Location of MinskLocation

Historic Weather in Minsk

°F

Minsk temperature yesterday

Maximum temperature yesterday: 61 °F (at 2:00 PM)
Minimum temperature yesterday: 43 °F (at 7:00 AM)
Average temperature yesterday: 55 °F

Past Weeks' High & Low Weather Summary

 TemperatureHumidityPressure
High68 °F (Apr 19, 3:00 PM)100% (Apr 9, 8:00 AM)30.30 "Hg (Apr 9, 8:00 AM)
Low27 °F (Apr 5, 7:00 AM)19% (Apr 6, 3:00 PM)29.53 "Hg (Apr 15, 7:00 AM)
Average47 °F64%29.99 "Hg
* Reported Apr 4 3:00 PM — Apr 19 3:00 PM, Minsk, Weather by CustomWeather, © 2014

Note: Actual official high and low records may vary slightly from our data, if they occured in-between our weather recording intervals... More about our weather records

Advertising

Historic Weather Conditions — Data for Previous 24 hours

 ConditionsComfort  
Time TempWeatherWind HumidityBarometerVisibility
3:00 PM
Apr 19
68 °FPartly sunny.10 mph46%30.18 "HgN/A
2:30 PM66 °FScattered clouds.10 mph46%30.18 "HgN/A
2:00 PM66 °FPassing clouds.10 mph46%30.18 "HgN/A
1:30 PM64 °FSunny.10 mph52%30.18 "Hg10 mi
1:00 PM64 °FSunny.10 mph52%30.18 "Hg10 mi
12:30 PM63 °FSunny.10 mph56%30.21 "Hg10 mi
12:00 PM63 °FSunny.10 mph56%30.21 "Hg10 mi
11:30 AM61 °FSunny.10 mph63%30.21 "Hg10 mi
11:00 AM61 °FSunny.10 mph63%30.21 "Hg10 mi
10:30 AM57 °FSunny.8 mph72%30.21 "Hg10 mi
10:00 AM57 °FSunny.8 mph72%30.21 "Hg10 mi
9:30 AM52 °FSunny.6 mph82%30.18 "Hg10 mi
9:00 AM52 °FSunny.6 mph82%30.18 "Hg10 mi
8:30 AM50 °FSunny.3 mph88%30.18 "Hg10 mi
8:00 AM50 °FSunny.3 mph88%30.18 "Hg10 mi
7:30 AM48 °FClear.3 mph87%30.15 "Hg4 mi
7:00 AM48 °FFog.3 mph87%30.15 "Hg3 mi
8:30 PM
Apr 18
57 °FSunny.6 mph67%30.04 "Hg10 mi
8:00 PM57 °FSunny.6 mph67%30.04 "Hg10 mi
7:30 PM59 °FPartly sunny.6 mph68%30.04 "HgN/A
7:00 PM59 °FBroken clouds.8 mph68%30.01 "HgN/A
6:30 PM59 °FPartly sunny.10 mph63%30.01 "HgN/A
6:00 PM59 °FPartly sunny.10 mph63%30.01 "HgN/A
5:30 PM59 °FPartly sunny.8 mph59%30.01 "HgN/A
5:00 PM59 °FPartly sunny.8 mph59%30.01 "HgN/A
4:30 PM61 °FPartly sunny.6 mph52%30.01 "HgN/A
4:00 PM61 °FPartly sunny.6 mph52%30.01 "HgN/A
Weather by CustomWeather, © 2014

See weather overview